GW3926 Weather Reports


time (UTC)temp
C
wind
direction
speed
KPH
gust
KPH
rain 1hr
cm
rain 24hr
cm
rain mn
cm
humidity
%
barometer
mb
20260906150021 25 63 4.8 17.7 0.00 0.00 0.00 79 1017.2
20260906145510 25 83 4.8 16.1 0.00 0.00 0.00 80 1017.1
20260906145012 25 51 6.4 16.1 0.00 0.00 0.00 82 1017.0
20260906144526 24 36 4.8 14.5 0.00 0.00 0.00 82 1017.0
20260906144011 25 57 8.0 14.5 0.00 0.00 0.00 81 1017.0
20260906143505 25 105 4.8 14.5 0.00 0.00 0.00 80 1016.8
20260906143008 25 76 6.4 14.5 0.00 0.00 0.00 81 1016.6
20260906142507 25 74 4.8 14.5 0.00 0.00 0.00 80 1016.6
20260906142006 25 61 3.2 12.9 0.00 0.00 0.00 81 1016.7
20260906141511 24 60 6.4 12.9 0.00 0.00 0.00 82 1016.7
20260906141010 25 58 4.8 12.9 0.00 0.00 0.00 82 1016.7
20260906140510 24 32 4.8 11.3 0.00 0.00 0.00 83 1016.8
20260906140034 24 80 3.2 8.0 0.00 0.00 0.00 83 1016.8
20260906135515 24 61 4.8 8.0 0.00 0.00 0.00 83 1016.7
20260906135013 24 87 1.6 9.7 0.00 0.00 0.00 84 1016.6
20260906134523 23 24 6.4 12.9 0.00 0.00 0.00 83 1016.6
20260906134014 23 19 4.8 12.9 0.00 0.00 0.00 84 1016.6
20260906133511 23 53 1.6 14.5 0.00 0.00 0.00 84 1016.5
20260906133026 23 82 1.6 14.5 0.00 0.00 0.00 85 1016.6
20260906132516 23 36 3.2 9.7 0.00 0.00 0.00 84 1016.6
20260906132005 23 74 3.2 9.7 0.00 0.00 0.00 84 1016.6
20260906131511 23 40 1.6 9.7 0.00 0.00 0.00 85 1016.7
20260906131008 23 9 4.8 11.3 0.00 0.00 0.00 86 1016.7
20260906130508 23 349 3.2 12.9 0.00 0.00 0.00 86 1016.7
20260906130019 23 77 4.8 12.9 0.00 0.00 0.00 86 1016.7
20260906125508 23 57 3.2 11.3 0.00 0.00 0.00 86 1016.7
20260906125010 23 22 3.2 8.0 0.00 0.00 0.00 86 1016.7
20260906124522 22 65 1.6 6.4 0.00 0.00 0.00 86 1016.8
20260906124012 22 309 0.0 6.4 0.00 0.00 0.00 87 1016.6
20260906123512 22 33 1.6 6.4 0.00 0.00 0.00 87 1016.5
20260906123033 22 34 1.6 6.4 0.00 0.00 0.00 87 1016.4
20260906122514 22 31 1.6 4.8 0.00 0.00 0.00 87 1016.3
20260906122013 22 22 1.6 4.8 0.00 0.00 0.00 87 1016.3
20260906121538 22 11 0.0 3.2 0.00 0.00 0.00 87 1016.3
20260906121016 22 53 0.0 4.8 0.00 0.00 0.00 87 1016.3
20260906120506 22 17 0.0 4.8 0.00 0.00 0.00 87 1016.2
20260906120012 22 65 0.0 3.2 0.00 0.00 0.00 87 1016.0
20260906115508 22 30 0.0 3.2 0.00 0.00 0.00 87 1016.0
20260906115008 22 15 1.6 3.2 0.00 0.00 0.00 87 1015.9
20260906114529 22 29 1.6 4.8 0.00 0.00 0.00 87 1016.0
20260906114013 22 53 1.6 4.8 0.00 0.00 0.00 87 1016.0
20260906113511 22 57 0.0 4.8 0.00 0.00 0.00 87 1015.9
20260906113042 22 60 0.0 4.8 0.00 0.00 0.00 87 1015.9
20260906112515 22 34 1.6 3.2 0.00 0.00 0.00 87 1015.9
20260906112014 22 24 0.0 4.8 0.00 0.00 0.00 87 1015.9
20260906111528 22 69 0.0 4.8 0.00 0.00 0.00 87 1015.9
20260906111012 22 11 0.0 4.8 0.00 0.00 0.00 87 1015.9
20260906110514 23 12 0.0 4.8 0.00 0.00 0.00 86 1015.9
20260906110029 23 67 0.0 6.4 0.00 0.00 0.00 86 1015.8
20260906105515 23 31 0.0 6.4 0.00 0.00 0.00 86 1015.7
20260906105011 23 17 1.6 6.4 0.00 0.00 0.00 86 1015.6
20260906104525 23 40 1.6 4.8 0.00 0.00 0.00 86 1015.5
20260906104011 23 83 1.6 4.8 0.00 0.00 0.00 87 1015.5
20260906103513 23 36 0.0 3.2 0.00 0.00 0.00 87 1015.5
20260906103024 23 30 1.6 3.2 0.00 0.00 0.00 87 1015.4
20260906102513 23 50 0.0 3.2 0.00 0.00 0.00 86 1015.5
20260906102014 23 34 1.6 8.0 0.00 0.00 0.00 86 1015.5
20260906101529 23 36 1.6 8.0 0.00 0.00 0.00 86 1015.5
20260906101014 23 42 3.2 6.4 0.00 0.00 0.00 86 1015.5
20260906100514 23 66 1.6 6.4 0.00 0.00 0.00 85 1015.5
20260906100027 23 62 1.6 6.4 0.00 0.00 0.00 85 1015.3
20260906095515 23 44 1.6 8.0 0.00 0.00 0.00 85 1015.3
20260906095015 23 55 3.2 8.0 0.00 0.00 0.00 85 1015.2
20260906094534 23 38 3.2 6.4 0.00 0.00 0.00 86 1015.2
20260906094010 24 29 1.6 4.8 0.00 0.00 0.00 86 1015.0
20260906093510 24 49 0.0 4.8 0.00 0.00 0.00 86 1015.1
20260906093018 24 26 1.6 6.4 0.00 0.00 0.00 86 1015.2
20260906092512 24 28 1.6 6.4 0.00 0.00 0.00 86 1015.1
20260906092016 24 36 1.6 4.8 0.00 0.00 0.00 86 1015.2
20260906091532 24 57 1.6 9.7 0.00 0.00 0.00 86 1015.1
20260906091016 24 48 3.2 9.7 0.00 0.00 0.00 86 1015.0
20260906090515 24 11 0.0 6.4 0.00 0.00 0.00 85 1014.9
20260906090031 25 27 1.6 6.4 0.00 0.00 0.00 85 1014.9
20260906085521 25 18 0.0 6.4 0.00 0.00 0.00 85 1014.9
20260906085017 25 352 0.0 6.4 0.00 0.00 0.00 85 1015.0
20260906084532 25 16 1.6 6.4 0.00 0.00 0.00 85 1015.0
20260906084018 25 55 3.2 8.0 0.00 0.00 0.00 85 1014.9
20260906083518 25 348 0.0 8.0 0.00 0.00 0.00 85 1014.8
20260906083029 25 15 1.6 8.0 0.00 0.00 0.00 85 1014.7
20260906082511 25 75 1.6 11.3 0.00 0.00 0.00 84 1014.7
20260906082014 25 317 1.6 11.3 0.00 0.00 0.00 84 1014.6
20260906081539 25 49 4.8 11.3 0.00 0.00 0.00 85 1014.6
20260906081013 25 80 4.8 11.3 0.00 0.00 0.00 85 1014.6
20260906080515 25 101 1.6 8.0 0.00 0.00 0.00 86 1014.6
20260906080031 25 5 0.0 4.8 0.00 0.00 0.00 86 1014.5
20260906075513 25 31 0.0 6.4 0.00 0.00 0.00 86 1014.5
20260906075018 26 35 1.6 9.7 0.00 0.00 0.00 85 1014.6
20260906074531 26 69 0.0 9.7 0.00 0.00 0.00 85 1014.6
20260906074016 26 33 1.6 9.7 0.00 0.00 0.00 85 1014.6
20260906073514 26 24 1.6 9.7 0.00 0.00 0.00 85 1014.6
20260906073030 26 26 3.2 8.0 0.00 0.00 0.00 85 1014.6
20260906072515 26 310 3.2 8.0 0.00 0.00 0.00 85 1014.7
20260906072014 26 33 3.2 8.0 0.00 0.00 0.00 85 1014.7
20260906071530 26 32 1.6 8.0 0.00 0.00 0.00 85 1014.7
20260906071013 26 59 3.2 11.3 0.00 0.00 0.00 85 1014.7
20260906070516 26 52 4.8 8.0 0.00 0.00 0.00 85 1014.7
20260906070025 26 349 3.2 8.0 0.00 0.00 0.00 85 1014.6
20260906065514 26 299 1.6 6.4 0.00 0.00 0.00 84 1014.6
20260906065009 26 39 1.6 6.4 0.00 0.00 0.00 84 1014.5
20260906064507 26 46 3.2 6.4 0.00 0.00 0.00 83 1014.5
20260906064007 26 19 3.2 8.0 0.00 0.00 0.00 83 1014.6
20260906063506 27 13 1.6 8.0 0.00 0.00 0.00 82 1014.6
20260906063010 27 92 3.2 9.7 0.00 0.00 0.00 81 1014.6
20260906062507 27 9 1.6 8.0 0.00 0.00 0.00 81 1014.5
20260906062009 27 16 1.6 6.4 0.00 0.00 0.00 80 1014.4
20260906061516 27 81 0.0 8.0 0.00 0.00 0.00 80 1014.4
20260906061020 27 34 1.6 8.0 0.00 0.00 0.00 80 1014.5
20260906060513 27 60 0.0 3.2 0.00 0.00 0.00 79 1014.5
20260906060028 27 60 0.0 3.2 0.00 0.00 0.00 78 1014.5
20260906055514 27 44 0.0 3.2 0.00 0.00 0.00 78 1014.6
20260906055017 27 36 0.0 1.6 0.00 0.00 0.00 78 1014.6
20260906054534 27 32 0.0 0.0 0.00 0.00 0.00 78 1014.5
20260906054007 27 32 0.0 0.0 0.00 0.00 0.00 78 1014.5
20260906053505 27 32 0.0 0.0 0.00 0.00 0.00 77 1014.5
20260906053019 27 63 0.0 0.0 0.00 0.00 0.00 77 1014.5
20260906052507 27 63 0.0 0.0 0.00 0.00 0.00 77 1014.4
20260906052007 27 63 0.0 0.0 0.00 0.00 0.00 77 1014.3
20260906051516 28 63 0.0 3.2 0.00 0.00 0.00 76 1014.4
20260906051010 28 63 0.0 3.2 0.00 0.00 0.00 76 1014.4
20260906050512 28 20 0.0 3.2 0.00 0.00 0.00 75 1014.5
20260906050032 28 34 0.0 0.0 0.00 0.00 0.00 75 1014.4
20260906045513 28 28 0.0 0.0 0.00 0.00 0.00 75 1014.4
20260906045013 28 28 0.0 0.0 0.00 0.00 0.00 75 1014.4
20260906044534 28 28 0.0 0.0 0.00 0.00 0.00 75 1014.3
20260906044018 28 28 0.0 0.0 0.00 0.00 0.00 74 1014.2
20260906043515 28 28 0.0 0.0 0.00 0.00 0.00 74 1014.2
20260906043028 28 28 0.0 0.0 0.00 0.00 0.00 74 1014.1
20260906042506 28 28 0.0 0.0 0.00 0.00 0.00 74 1014.1
20260906042006 28 28 0.0 0.0 0.00 0.00 0.00 74 1014.1
20260906041513 28 28 0.0 0.0 0.00 0.00 0.00 74 1014.0
20260906041009 28 28 0.0 0.0 0.00 0.00 0.00 73 1014.1
20260906040513 28 28 0.0 0.0 0.00 0.00 0.00 73 1014.0
20260906040025 28 28 0.0 0.0 0.00 0.00 0.00 73 1013.9
20260906035509 28 28 0.0 0.0 0.00 0.00 0.00 72 1013.8
20260906035013 28 28 0.0 0.0 0.00 0.00 0.00 72 1013.8
20260906034528 28 28 0.0 0.0 0.00 0.00 0.00 71 1013.8
20260906034016 28 28 0.0 0.0 0.00 0.00 0.00 70 1013.8
20260906033514 28 28 0.0 0.0 0.00 0.00 0.00 71 1013.9
20260906033040 28 28 0.0 0.0 0.00 0.00 0.00 70 1013.9
20260906032515 28 28 0.0 0.0 0.00 0.00 0.00 70 1013.9
20260906032016 28 28 0.0 0.0 0.00 0.00 0.00 70 1013.9
20260906031531 28 28 0.0 0.0 0.00 0.00 0.00 70 1013.8
20260906031006 28 28 0.0 0.0 0.00 0.00 0.00 69 1013.8
20260906030506 28 28 0.0 0.0 0.00 0.00 0.00 69 1013.6
20260906030018 28 28 0.0 0.0 0.00 0.00 0.00 68 1013.5
20260906025509 28 28 0.0 0.0 0.00 0.00 0.00 68 1013.5
20260906025012 28 28 0.0 0.0 0.00 0.00 0.00 68 1013.5
20260906024524 28 28 0.0 0.0 0.00 0.00 0.00 67 1013.4
20260906024016 28 28 0.0 0.0 0.00 0.00 0.00 67 1013.3
20260906023513 29 28 0.0 0.0 0.00 0.00 0.00 67 1013.3
20260906023026 29 28 0.0 0.0 0.00 0.00 0.00 67 1013.2
20260906022518 29 28 0.0 0.0 0.00 0.00 0.00 67 1013.2
20260906022015 29 28 0.0 0.0 0.00 0.00 0.00 67 1013.1
20260906021533 29 28 0.0 0.0 0.00 0.00 0.00 66 1013.1
20260906021017 29 28 0.0 0.0 0.00 0.00 0.00 66 1013.0
20260906020518 29 28 0.0 0.0 0.00 0.00 0.00 67 1012.8
20260906020034 29 28 0.0 0.0 0.00 0.00 0.00 67 1012.7
20260906015506 30 28 0.0 0.0 0.00 0.00 0.00 66 1012.7
20260906015010 30 28 0.0 0.0 0.00 0.00 0.00 65 1012.5
20260906014520 30 28 0.0 0.0 0.00 0.00 0.00 65 1012.5
20260906014014 30 28 0.0 0.0 0.00 0.00 0.00 65 1012.5
20260906013512 30 28 0.0 0.0 0.00 0.00 0.00 64 1012.4
20260906013027 30 28 0.0 0.0 0.00 0.00 0.00 65 1012.4
20260906012517 30 299 0.0 0.0 0.00 0.00 0.00 65 1012.3
20260906012013 30 309 0.0 0.0 0.00 0.00 0.00 65 1012.3
20260906011536 30 313 0.0 0.0 0.00 0.00 0.00 64 1012.2
20260906011018 30 360 0.0 0.0 0.00 0.00 0.00 65 1012.2
20260906010519 30 26 0.0 0.0 0.00 0.00 0.00 64 1012.2
20260906010035 31 26 0.0 0.0 0.00 0.00 0.00 63 1012.2
20260906005516 31 26 0.0 0.0 0.00 0.00 0.00 63 1012.2
20260906005020 31 26 0.0 0.0 0.00 0.00 0.00 62 1012.1
20260906004533 31 352 0.0 3.2 0.00 0.00 0.00 61 1012.1
20260906004012 31 84 0.0 3.2 0.00 0.00 0.00 60 1012.1
20260906003519 31 14 0.0 3.2 0.00 0.00 0.00 60 1012.1
20260906003024 32 76 0.0 3.2 0.00 0.00 0.00 1012.0
20260906002512 32 15 0.0 3.2 0.00 0.00 0.00 58 1012.0
20260906002012 32 339 0.0 6.4 0.00 0.00 0.00 58 1012.1
20260906001529 32 360 1.6 6.4 0.00 0.00 0.00 1012.1
20260906001015 32 79 0.0 4.8 0.00 0.00 0.00 56 1012.2
20260906000515 32 161 0.0 8.0 0.00 0.00 0.00 56 1012.2
20260906000030 32 266 1.6 6.4 0.00 0.00 0.00 55 1012.2
20260905235517 32 28 1.6 6.4 0.00 0.00 0.00 55 1012.3
20260905235020 32 34 0.0 3.2 0.00 0.00 0.00 55 1012.3
20260905234530 32 292 1.6 9.7 0.00 0.00 0.00 54 1012.2
20260905234019 32 271 1.6 9.7 0.00 0.00 0.00 54 1012.3
20260905233518 33 253 0.0 3.2 0.00 0.00 0.00 53 1012.4
20260905233042 33 14 0.0 6.4 0.00 0.00 0.00 52 1012.3
20260905232511 33 247 1.6 12.9 0.00 0.00 0.00 52 1012.4
20260905232011 33 232 3.2 12.9 0.00 0.00 0.00 51 1012.4
20260905231526 34 248 1.6 11.3 0.00 0.00 0.00 50 1012.4
20260905231013 35 335 3.2 6.4 0.00 0.00 0.00 48 1012.4
20260905230515 35 30 0.0 9.7 0.00 0.00 0.00 48 1012.4
20260905230036 35 290 3.2 9.7 0.00 0.00 0.00 47 1012.4
20260905225515 35 227 0.0 6.4 0.00 0.00 0.00 47 1012.4
20260905225021 35 183 0.0 3.2 0.00 0.00 0.00 47 1012.4
20260905224545 35 5 0.0 3.2 0.00 0.00 0.00 46 1012.3
20260905224021 35 21 0.0 3.2 0.00 0.00 0.00 45 1012.2
20260905223518 35 96 1.6 3.2 0.00 0.00 0.00 45 1012.1
20260905223032 35 53 1.6 6.4 0.00 0.00 0.00 44 1012.1
20260905222518 35 42 1.6 6.4 0.00 0.00 0.00 45 1012.0
20260905222018 35 5 3.2 6.4 0.00 0.00 0.00 44 1012.1
20260905221539 35 14 3.2 12.9 0.00 0.00 0.00 44 1012.1
20260905221014 36 77 3.2 12.9 0.00 0.00 0.00 44 1012.1
20260905220503 36 44 4.8 12.9 0.00 0.00 0.00 42 1012.1
20260905220004 36 49 4.8 12.9 0.00 0.00 0.00 42 1012.1
20260905215504 36 47 3.2 12.9 0.00 0.00 0.00 41 1012.1
20260905215004 37 284 3.2 11.3 0.00 0.00 0.00 41 1012.1
20260905214508 37 44 3.2 11.3 0.00 0.00 0.00 41 1012.1
20260905214007 37 92 1.6 9.7 0.00 0.00 0.00 42 1012.2
20260905213508 36 350 1.6 9.7 0.00 0.00 0.00 43 1012.2
20260905213011 36 57 3.2 9.7 0.00 0.00 0.00 41 1012.1
20260905212508 37 76 3.2 12.9 0.00 0.00 0.00 41 1012.0
20260905212012 37 81 3.2 16.1 0.00 0.00 0.00 41 1012.0
20260905211516 37 70 4.8 16.1 0.00 0.00 0.00 41 1012.0
20260905211003 37 51 4.8 14.5 0.00 0.00 0.00 41 1012.0
20260905210503 37 289 0.0 8.0 0.00 0.00 0.00 43 1012.2
20260905210004 37 46 4.8 12.9 0.00 0.00 0.00 41 1012.3
20260905205504 37 106 4.8 11.3 0.00 0.00 0.00 41 1012.4
20260905205004 37 150 4.8 11.3 0.00 0.00 0.00 41 1012.5
20260905204507 37 51 3.2 11.3 0.00 0.00 0.00 43 1012.5
20260905204007 36 67 1.6 12.9 0.00 0.00 0.00 42 1012.5
20260905203507 36 34 3.2 12.9 0.00 0.00 0.00 43 1012.4
20260905203008 37 250 1.6 9.7 0.00 0.00 0.00 45 1012.4
20260905202515 37 360 3.2 8.0 0.00 0.00 0.00 40 1012.5
20260905202010 37 196 3.2 9.7 0.00 0.00 0.00 39 1012.7
20260905201514 36 22 3.2 12.9 0.00 0.00 0.00 40 1012.7
20260905201012 36 61 3.2 16.1 0.00 0.00 0.00 44 1012.6
20260905200511 37 29 6.4 16.1 0.00 0.00 0.00 42 1012.6
20260905200025 37 22 4.8 16.1 0.00 0.00 0.00 42 1012.7
20260905195504 37 46 1.6 16.1 0.00 0.00 0.00 44 1012.7
20260905195004 37 185 1.6 19.3 0.00 0.00 0.00 43 1012.7
20260905194505 37 207 3.2 19.3 0.00 0.00 0.00 43 1012.7
20260905194004 38 13 4.8 19.3 0.00 0.00 0.00 43 1013.0
20260905193505 38 288 6.4 16.1 0.00 0.00 0.00 40 1012.9
20260905193009 38 286 6.4 16.1 0.00 0.00 0.00 36 1012.9
20260905192506 38 121 6.4 19.3 0.00 0.00 0.00 36 1013.0
20260905192008 38 238 6.4 19.3 0.00 0.00 0.00 37 1013.0
20260905191512 38 293 9.7 19.3 0.00 0.00 0.00 37 1013.1
20260905191010 38 282 1.6 16.1 0.00 0.00 0.00 37 1013.1
20260905190510 38 238 9.7 16.1 0.00 0.00 0.00 36 1013.1
20260905190017 38 234 6.4 16.1 0.00 0.00 0.00 37 1013.2
20260905185515 38 215 9.7 16.1 0.00 0.00 0.00 37 1013.3
20260905185013 37 286 4.8 12.9 0.00 0.00 0.00 40 1013.3
20260905184528 37 304 1.6 16.1 0.00 0.00 0.00 39 1013.3
20260905184003 37 313 6.4 16.1 0.00 0.00 0.00 37 1013.3
20260905183504 37 298 3.2 16.1 0.00 0.00 0.00 39 1013.3
20260905183007 38 257 4.8 12.9 0.00 0.00 0.00 38 1013.5
20260905182506 37 236 4.8 11.3 0.00 0.00 0.00 40 1013.5
20260905182004 37 267 4.8 12.9 0.00 0.00 0.00 39 1013.5
20260905181511 37 181 1.6 12.9 0.00 0.00 0.00 40 1013.6
20260905181008 37 281 6.4 12.9 0.00 0.00 0.00 39 1013.6
20260905180510 37 305 4.8 9.7 0.00 0.00 0.00 38 1013.8
20260905180015 37 261 3.2 14.5 0.00 0.00 0.00 41 1013.8
20260905175509 37 258 6.4 14.5 0.00 0.00 0.00 42 1013.9
20260905175012 37 54 4.8 12.9 0.00 0.00 0.00 41 1014.0
20260905174526 37 207 1.6 12.9 0.00 0.00 0.00 43 1014.0
20260905174015 37 288 1.6 6.4 0.00 0.00 0.00 44 1014.1
20260905173515 36 16 1.6 6.4 0.00 0.00 0.00 46 1014.0
20260905173030 36 215 1.6 6.4 0.00 0.00 0.00 48 1014.0
20260905172504 36 323 1.6 6.4 0.00 0.00 0.00 47 1014.1
20260905172004 36 267 3.2 12.9 0.00 0.00 0.00 46 1014.1
20260905171513 36 235 6.4 12.9 0.00 0.00 0.00 48 1014.1
20260905171004 36 250 4.8 11.3 0.00 0.00 0.00 48 1014.2
20260905170517 35 257 3.2 11.3 0.00 0.00 0.00 48 1014.4
20260905170012 36 293 0.0 9.7 0.00 0.00 0.00 49 1014.5
20260905165520 35 246 3.2 9.7 0.00 0.00 0.00 51 1014.5
20260905165012 35 72 4.8 9.7 0.00 0.00 0.00 51 1014.6
20260905164536 35 360 3.2 8.0 0.00 0.00 0.00 49 1014.6
20260905164012 35 28 3.2 9.7 0.00 0.00 0.00 49 1014.7
20260905163512 35 327 3.2 9.7 0.00 0.00 0.00 51 1014.7
20260905163027 35 290 1.6 8.0 0.00 0.00 0.00 49 1014.9
20260905162516 35 268 3.2 9.7 0.00 0.00 0.00 51 1014.9
20260905162015 35 352 1.6 9.7 0.00 0.00 0.00 50 1014.9
20260905161530 35 285 3.2 9.7 0.00 0.00 0.00 50 1014.9
20260905161005 34 282 3.2 9.7 0.00 0.00 0.00 50 1014.8
20260905160505 34 259 0.0 6.4 0.00 0.00 0.00 53 1014.8
20260905160012 34 258 1.6 6.4 0.00 0.00 0.00 52 1014.9
20260905155508 33 194 1.6 9.7 0.00 0.00 0.00 52 1014.9
20260905155013 33 292 4.8 11.3 0.00 0.00 0.00 52 1014.9
20260905154514 33 315 4.8 11.3 0.00 0.00 0.00 52 1014.9
20260905154012 33 300 1.6 9.7 0.00 0.00 0.00 52 1015.0
20260905153512 34 317 0.0 8.0 0.00 0.00 0.00 52 1014.9
20260905153022 33 267 1.6 4.8 0.00 0.00 0.00 52 1015.0
20260905152516 33 271 1.6 14.5 0.00 0.00 0.00 52 1014.9
20260905152013 33 275 4.8 14.5 0.00 0.00 0.00 53 1014.8
20260905151534 33 324 3.2 11.3 0.00 0.00 0.00 55 1014.8
20260905151013 33 313 1.6 11.3 0.00 0.00 0.00 55 1014.9
20260905150516 32 336 3.2 4.8 0.00 0.00 0.00 57 1014.9